Regional Weather Roundup
Issued by NWS Grand Forks, ND

Home | Current Version | Previous Version | Graphics & Text | Print | Product List | Glossary On
Versions: 1 2 3 4 5 6 7 8 9 10 11 12 13 14 15 16 17 18 19 20 21 22 23 24 25 26 27 28 29 30 31 32 33 34 35 36 37 38 39 40 41 42 43 44 45 46 47 48 49 50
309
ASUS43 KFGF 171310
RWRFGF
PRAIRIE TO PINES  WEATHER ROUNDUP
NATIONAL WEATHER SERVICE EASTERN NORTH DAKOTA/GRAND FORKS ND
700 AM CST FRI NOV 17 2017

 **SATELLITE DATA USED TO AUGMENT SKY COVER AT AUTOMATED STATIONS**
 *****  WEATHER ACROSS EASTERN NORTH DAKOTA  *****

CITY           SKY/WX    TMP DP  RH WIND       PRES   REMARKS
GRAND FORKS    CLOUDY    32  29  88 SW9       29.62S WCI  24
GRAND FRKS AFB FAIR      31  28  90 SW5       29.62S
GRAND FRKS NWS   N/A     32 N/A N/A SW3         N/A
DEVILS LAKE    FAIR      21  16  81 NW20      29.60F WCI   6
FARGO          CLOUDY    35  29  78 S10       29.63R
WAHPETON ARPT  NOT AVBL
$$

 ***** WEATHER ACROSS CENTRAL AND WESTERN NORTH DAKOTA  *****

CITY           SKY/WX    TMP DP  RH WIND       PRES   REMARKS
BISMARCK       CLOUDY    37  32  82 N8        29.66S
MINOT          FAIR      15   9  76 NW7       29.66R WCI   5
JAMESTOWN      MOCLDY    33  29  85 NW8       29.60S
MINOT AFB      FAIR      12   7  82 W6        29.66R WCI   2
GARRISON         N/A     22  16  78 NW10      29.66R WCI  11
WILLISTON      FAIR      11   7  84 CALM      29.67R
DICKINSON      FAIR      24  20  84 W7        29.62R WCI  16
HETTINGER      CLOUDY    30  25  81 W3        29.66R
$$

 *****  OTHER AIRPORT OBSERVATIONS IN OUR AREA  *****

CITY           SKY/WX    TMP DP  RH WIND       PRES   REMARKS
WALHALLA       FAIR      25  16  68 NW17G25   29.61S WCI  11
GRAFTON AIRPOR FAIR      32  30  93 W10       29.62S WCI  24
VALLEY CITY AR MIX PCPN  28  28 100 SW5       29.64R WCI  23
CANDO          FAIR      18  18 100 NW14      29.61F WCI   4
CAVALIER APRT  FAIR      27  21  80 NW8       29.62R WCI  18
GWINNER          N/A     32  28  86 NW5       29.62R
SHEYENNE NWR     N/A     29  29 100 CALM      29.95S
ROLLA          FAIR      12   9  85 S5        29.60R WCI   4
 ***** THE ABOVE OBSERVATIONS ARE NON NWS ARE NOT QUALITY
       CONTROLLED AND MAY MIS-REPORT RAIN FOR SNOW...
$$

  *****  WEATHER ACROSS NORTHERN MINNESOTA  *****

CITY           SKY/WX    TMP DP  RH WIND       PRES   REMARKS
FLAG ISLAND    FAIR      32  28  86 S9G16     29.56F WCI  24
WARROAD        MOCLDY    34  28  80 SW10      29.59S
ROSEAU         FAIR      34  28  80 SW14      29.58R WCI  24
HALLOCK        FAIR      32  30  93 SW12      29.61R WCI  23
THF RVR FALLS  MOCLDY    32  28  85 SW10      29.62R WCI  24
BAUDETTE       CLOUDY    33  28  81 S14       29.59R WCI  23
WASKISH        CLOUDY    34  28  80 S9G17     29.64R
CROOKSTON      CLOUDY    32  28  86 SW6       29.62F
STEPHEN NDAWN    N/A     30  28  93 SW7         N/A  WCI  23
GREENBUSH NDAW   N/A     32  28  86 SW12        N/A  WCI  23
$$
  *****  WEATHER ACROSS CENTRAL AND WEST MINNESOTA  *****

CITY           SKY/WX    TMP DP  RH WIND       PRES   REMARKS
FOSSTON        MOCLDY    30  27  86 S9        29.61F WCI  22
BEMIDJI        CLOUDY    32  28  83 S7        29.61F
PARK RAPIDS    FAIR      32  27  81 SE14      29.62F WCI  22
ELBOW LAKE     FAIR      33  29  87 E15       29.61F FOG     WCI  22
WADENA         FAIR      32  28  86 SE10      29.63F WCI  24
DETROIT LAKES  FAIR      32  30  93 S7        29.64R
MOORHEAD       MOCLDY    34  28  80 CALM      29.65R
FERGUS FALLS   FAIR      34  28  80 S10       29.63R
MORRIS MN      FAIR      34  28  80 SE8       29.63S
STAPLES        FAIR      32  27  80 SE5       29.66S
$$
  *****  WEATHER ELSEWHERE ACROSS MINNESOTA  *****

CITY           SKY/WX    TMP DP  RH WIND       PRES   REMARKS
DULUTH         CLOUDY    31  28  89 S13       29.71F WCI  21
INTRNTL FALLS  CLOUDY    32  25  75 S9G23     29.60F WCI  24
ELY            MOCLDY    30  27  86 S8        29.70F WCI  23
CLOQUET        CLOUDY    32  27  80 SE7       29.71F
WHEATON        FAIR      32  28  86 SE13      29.60F WCI  22
BRAINERD       CLOUDY    34  28  79 S7        29.68F
HIBBING        CLOUDY    30  25  81 S6        29.71S WCI  24
ALEXANDRIA     FAIR      33  29  85 SE7       29.64F
SAINT CLOUD    CLOUDY    36  30  79 SE12      29.68F
MINNEAPOLIS    CLOUDY    37  31  78 S14G23    29.74S
$$

  *****  WEATHER ACROSS SOUTH DAKOTA  *****

CITY           SKY/WX    TMP DP  RH WIND       PRES   REMARKS
SIOUX FALLS    MOCLDY    43  37  79 S12       29.58S
BROOKINGS      FAIR      35  30  82 SE6       29.58S
WATERTOWN      FAIR      30  28  92 E5        29.59R
HURON          FAIR      33  29  85 E3        29.57S
SISSETON         N/A     31  28  89 S6        29.59S
ABERDEEN       FAIR      32  28  85 N7        29.63R
MITCHELL       FAIR      38  33  82 NW13      29.56S
PIERRE         MOCLDY    37  30  75 NW10      29.65R
MOBRIDGE       FAIR      37  32  82 N3        29.59F
RAPID CITY     LGT RAIN  35  34  96 NW8       29.68R
$$

  *****  SOME WEATHER IN NEARBY STATES *****

CITY           SKY/WX    TMP DP  RH WIND       PRES   REMARKS
GLASGOW MT     FAIR      17  14  88 SE6       29.62R WCI   9
GREAT FALLS MT FAIR      28  18  66 SW10      29.57R WCI  19
CHEYENNE WY    FAIR      52  29  41 W20G29    29.66S
SCOTTSBLUFF NE CLOUDY    41  27  57 NE13G21   29.64R
OMAHA NE       CLOUDY    53  44  71 S21       29.64F
DES MOINES IA  CLOUDY    43  34  70 SE12      29.80F
DAVENPORT IA   CLOUDY    34  29  82 SE14G21   29.99F WCI  25
CHICAGO IL     FAIR      35  29  78 S13       30.09F
EAU CLAIRE WI  CLOUDY    34  27  75 SE15G22   29.81F WCI  24
LA CROSSE WI   CLOUDY    37  29  72 SE18      29.85F
$$

  *****  SOME NATIONAL WEATHER *****

CITY           SKY/WX    TMP DP  RH WIND       PRES   REMARKS
LA GUARDIA NY  FAIR      42  28  57 NW23G31   30.04R
RALEIGH NC     FAIR      37  31  78 CALM      30.24R
ATLANTA GA     FAIR      47  37  68 E6        30.18R
NEW ORLEANS LA MOCLDY    57  57 100 E3        30.15R FOG
OKLAHOMA CITY  MOCLDY    62  60  93 S20G28    29.80S
ALBUQUERQUE NM FAIR      47  19  33 SE9       30.07S
SALT LAKE CITY LGT RAIN  45  42  89 N10       29.73F
LOS ANGELES CA LGT RAIN  64  60  87 W5        30.00S
BOISE ID       CLOUDY    41  34  76 NE6       29.80R
SEATTLE WA     CLOUDY    42  38  85 S8        29.87R
$$

*** WEATHER ACROSS MANITOBA...SASKATCHEWAN AND ONTARIO ***
                ***ONTARIO***

CITY           SKY/WX    TMP DP  RH WIND       PRES   REMARKS
GERALDTON      LGT SNOW  19  18  93 S10G21    29.88F WCI   8
THUNDER BAY    FLURRIES  34  30  86 SE9G18    29.82F
SIOUX LOOKOUT  LGT SNOW  30  28  93 S13G24    29.56F BLWGSNOWWCI  20
TORONTO        MOCLDY    28  19  69 N8        30.27R WCI  20
BIG TROUT LK   LGT SNOW  16  14  93 S22G29    29.57F VSB 3/4 WCI  -2
PICKLE LAKE    LGT SNOW  23  21  93 S17G28    29.56F VSB 3/4 WCI   9
DRYDEN         LGT SNOW  30  28  93 S16G23    29.57R WCI  19
KENORA         FLURRIES  30  28  93 SW18G25   29.54S WCI  18
$$
                *** MANITOBA***

CITY           SKY/WX    TMP DP  RH WIND       PRES   REMARKS
BRANDON        PTCLDY    10   5  79 W17       29.59R WCI  -7
DAUPHIN        CLEAR     16   9  73 W20G28    29.57R WCI  -1
ISLAND LAKE    NOT AVBL
PILOT MOUND      N/A     14   9  79 NW13G20     N/A  WCI   0
THE PAS        FLURRIES  14   9  79 W18       29.46R WCI  -3
THOMPSON       LGT SNOW  12   9  85 NW6       29.27S WCI   3
WINNIPEG       PTCLDY    19  12  73 W16       29.59R WCI   5
LYNN LAKE      FLURRIES   3   1  92 NW7       29.35S WCI  -9
CHURCHILL      LGT SNOW  12  10  92 SE17      29.46F BLWGSNOWWCI  -5
$$
                ***SASKATCHEWAN***

CITY           SKY/WX    TMP DP  RH WIND       PRES   REMARKS
ESTEVAN        FLURRIES  10   7  85 NW12      29.65S WCI  -4
KINDERSLEY     CLOUDY     1  -2  85 W7        29.62R WCI -11
LLOYDMINSTER   PTCLDY     1   0  92 W9        29.58S WCI -14
PRINCE ALBERT  FLURRIES  12   5  73 W6        29.62R WCI   3
REGINA         FLURRIES  10   7  85 W9        29.63S WCI  -2
YORKTON        PTCLDY    10   5  79 W13       29.59R WCI  -5
N. BATTLEFORD  LGT SNOW   3   0  85 W5        29.65R WCI  -6
LA RONGE       FLURRIES  12   7  79 W8        29.52S WCI   1
SASKATOON      FLURRIES   1  -2  85 SW8       29.65S WCI -12
SWIFT CURRENT  PTCLDY    -2  -6  84 S7        29.56S WCI -16
$$
NOTE: THESE ARE AUTOMATED STATIONS WITH LIMITED QUALITY CONTROL
      "FAIR" INDICATES FEW OR NO CLOUDS BELOW 12,000 FEET WITH NO
      SIGNIFICANT WEATHER AND/OR OBSTRUCTIONS TO VISIBILITY.
      SKY/WX - SKY CONDITION AND SIGNIFICANT WEATHER.
      TMP - AIR TEMPERATURE.    DP   - DEWPOINT TEMPERATURE.
      RH  - RELATIVE HUMIDITY.  PRES - PRESSURE.
      HX  - HEAT INDEX.         WCI  - WIND CHILL INDEX.
$




USA.gov is the U.S. government's official web portal to all federal, state and local government web resources and services.